Regional Weather Roundup
Issued by NWS

Home | Current Version | Previous Version | Graphics & Text | Print | Product List | Glossary On
Versions: 1 2 3 4 5 6 7 8 9 10 11 12 13 14 15 16 17 18 19 20 21 22 23 24 25 26 27 28 29 30 31 32 33 34 35 36 37 38 39 40 41 42 43 44 45 46 47 48 49 50
000
ASUS43 KBIS 312020
RWRND

NORTH DAKOTA REGIONAL WEATHER ROUNDUP
NATIONAL WEATHER SERVICE BISMARCK ND
300 PM CDT THU JUL 31 2014

NOTE: "FAIR" INDICATES FEW OR NO CLOUDS BELOW 12,000 FEET WITH NO
SIGNIFICANT WEATHER AND/OR OBSTRUCTIONS TO VISIBILITY.


NDZ001>003-009>011-017-312100-
NORTHWEST NORTH DAKOTA

CITY           SKY/WX    TMP DP  RH WIND       PRES   REMARKS
WILLISTON      MOSUNNY   84  58  40 S8        30.05F
MINOT          SUNNY     80  52  37 NE6       30.07F
MINOT AFB      SUNNY     80  58  46 SW6       30.07S
$$

NDZ018>021-031>035-040>046-312100-
SOUTHWEST NORTH DAKOTA

CITY           SKY/WX    TMP DP  RH WIND       PRES   REMARKS
BISMARCK       SUNNY     85  53  33 SW9       30.08S
DICKINSON      SUNNY     85  51  31 NW7       30.08S
GARRISON         N/A     81  59  47 VRB3      30.08F
HETTINGER ARPT MOSUNNY   86  50  28 MISG      30.10F
$$

NDZ004>008-012>016-024-026-027-054-312100-
NORTHEAST NORTH DAKOTA

CITY           SKY/WX    TMP DP  RH WIND       PRES   REMARKS
GRAND FORKS    MOSUNNY   83  61  47 NW7       30.01S
GRND FRKS AFB  SUNNY     82  59  46 NE6       30.02S
DEVILS LAKE    SUNNY     81  55  41 NW9       30.04F
$$

NDZ022-023-025-028>030-036>039-047>053-312100-
SOUTHEAST NORTH DAKOTA

CITY           SKY/WX    TMP DP  RH WIND       PRES   REMARKS
FARGO          SUNNY     83  57  41 N8        30.01F
JAMESTOWN      MOSUNNY   81  54  39 VRB6      30.06S
$$



USA.gov is the U.S. government's official web portal to all federal, state and local government web resources and services.